Weather History for Boonville, MO

Change the Weather History Date:

Saturday, May 18, 2013

  Actual Average Record
Temperature  
Mean Temperature 73 °F -  
Max Temperature 90 °F 76 °F 90 °F (2013)
Min Temperature 61 °F 55 °F 41 °F (2014)
Cooling Degree Days 8    
Growing Degree Days 23 (Base 50)    
Moisture  
Dew Point 64 °F    
Average Humidity 75    
Maximum Humidity 99    
Minimum Humidity 50    
Precipitation  
Precipitation 0.00 in - - ()
Sea Level Pressure  
Sea Level Pressure 29.90 in    
Wind  
Wind Speed 6 mph (SE)    
Max Wind Speed 14 mph    
Max Gust Speed 18 mph    
Visibility 10 miles    
Events      
Averages and records for this station are not official NWS values.
T = Trace of Precipitation, MM = Missing Value Source: NWS Daily Summary

Daily Weather History Graph

Daily Weather History Graph

Search for Another Location

Airport:

Trip Planner

Search our weather history database for the weather conditions in past years. The results will help you decide how hot, cold, wet, or windy it might be!

Date:

Astronomy

May. 18, 2013 Rise Set
Actual Time 5:55 AM CDT 8:19 PM CDT
Civil Twilight 5:25 AM CDT 8:49 PM CDT
Nautical Twilight 4:47 AM CDT 9:27 PM CDT
Astronomical Twilight 4:06 AM CDT 10:09 PM CDT
Moon 1:26 PM CDT (5/18) 1:44 AM CDT (5/18)
Length of Visible Light 15h 24m
Length of Day
14h 24m
First Quarter, 55% of the Moon is Illuminated
May 18
First Quarter
May 24
Full
May 31
Last Quarter
Jun 8
New
Jun 16
First Quarter

Hourly Weather History & Observations

Time (CDT) Temp. Heat Index Dew Point Humidity Pressure Visibility Wind Dir Wind Speed Gust Speed Precip Events Conditions
12:15 AM 65.8 °F - 61.9 °F 87% 29.94 in 10.0 mi SE 5.8 mph - N/A   Clear
12:35 AM 65.7 °F - 62.4 °F 89% 29.94 in 10.0 mi ESE 5.8 mph - N/A   Clear
12:55 AM 65.1 °F - 62.6 °F 92% 29.94 in 10.0 mi SE 4.6 mph - N/A   Clear
1:15 AM 64.2 °F - 62.6 °F 94% 29.94 in 10.0 mi SE 5.8 mph - N/A   Clear
1:35 AM 63.5 °F - 62.2 °F 96% 29.94 in 10.0 mi SE 4.6 mph - N/A   Clear
1:55 AM 63.3 °F - 62.2 °F 96% 29.94 in 10.0 mi SE 4.6 mph - N/A   Clear
2:15 AM 63.0 °F - 61.9 °F 96% 29.94 in 10.0 mi Calm Calm - N/A   Clear
2:35 AM 62.8 °F - 62.1 °F 97% 29.94 in 10.0 mi ESE 4.6 mph - N/A   Clear
2:55 AM 62.8 °F - 61.9 °F 97% 29.94 in 10.0 mi SSE 3.5 mph - N/A   Clear
3:15 AM 62.4 °F - 61.7 °F 97% 29.93 in 10.0 mi SE 5.8 mph - N/A   Clear
3:35 AM 61.9 °F - 61.5 °F 99% 29.93 in 7.0 mi SE 3.5 mph - N/A   Clear
3:55 AM 62.6 °F - 62.2 °F 99% 29.93 in 10.0 mi Calm Calm - N/A   Clear
4:15 AM 63.3 °F - 62.6 °F 97% 29.93 in 10.0 mi Calm Calm - N/A   Clear
4:35 AM 62.8 °F - 62.1 °F 97% 29.93 in 7.0 mi SE 3.5 mph - N/A   Clear
4:55 AM 62.4 °F - 61.9 °F 98% 29.93 in 7.0 mi ESE 3.5 mph - N/A   Clear
5:15 AM 62.2 °F - 61.9 °F 99% 29.93 in 7.0 mi Calm Calm - N/A   Clear
5:35 AM 62.2 °F - 61.9 °F 99% 29.93 in 7.0 mi Calm Calm - N/A   Clear
5:55 AM 62.1 °F - 61.7 °F 99% 29.94 in 5.0 mi ESE 3.5 mph - N/A   Clear
6:15 AM 62.1 °F - 61.7 °F 99% 29.94 in 4.0 mi ESE 3.5 mph - N/A   Clear
6:35 AM 62.4 °F - 62.2 °F 99% 29.95 in 5.0 mi ESE 4.6 mph - N/A   Clear
6:55 AM 63.7 °F - 63.5 °F 99% 29.96 in 5.0 mi ESE 3.5 mph - N/A   Clear
7:15 AM 64.8 °F - 64.0 °F 98% 29.96 in 7.0 mi SE 4.6 mph - N/A   Clear
7:35 AM 65.8 °F - 64.6 °F 96% 29.96 in 10.0 mi SE 4.6 mph - N/A   Clear
7:55 AM 67.1 °F - 64.9 °F 93% 29.96 in 10.0 mi SE 5.8 mph - N/A   Clear
8:15 AM 68.7 °F - 65.8 °F 90% 29.96 in 10.0 mi SE 5.8 mph - N/A   Clear
8:35 AM 70.3 °F - 66.7 °F 88% 29.96 in 10.0 mi SE 6.9 mph - N/A   Clear
8:55 AM 72.0 °F - 67.3 °F 85% 29.96 in 10.0 mi SSE 8.1 mph - N/A   Clear
9:15 AM 73.6 °F - 66.4 °F 78% 29.96 in 10.0 mi SSE 5.8 mph - N/A   Clear
9:35 AM 75.0 °F - 65.7 °F 73% 29.96 in 10.0 mi SSE 8.1 mph - N/A   Clear
9:55 AM 75.6 °F - 64.9 °F 69% 29.96 in 10.0 mi SE 6.9 mph - N/A   Clear
10:15 AM 77.0 °F - 64.9 °F 66% 29.95 in 10.0 mi SE 8.1 mph - N/A   Scattered Clouds
10:55 AM 78.6 °F - 64.8 °F 62% 29.94 in 10.0 mi ESE 9.2 mph - N/A   Scattered Clouds
11:15 AM 79.3 °F - 64.9 °F 61% 29.94 in 10.0 mi ESE 10.4 mph - N/A   Scattered Clouds
11:35 AM 80.4 °F 82.2 °F 64.8 °F 59% 29.94 in 10.0 mi ESE 10.4 mph 17.3 mph N/A   Scattered Clouds
11:55 AM 80.2 °F 81.9 °F 64.4 °F 58% 29.93 in 10.0 mi ESE 12.7 mph - N/A   Scattered Clouds
12:15 PM 80.8 °F 82.2 °F 63.7 °F 56% 29.92 in 10.0 mi East 11.5 mph - N/A   Scattered Clouds
12:35 PM 81.3 °F 82.9 °F 64.0 °F 56% 29.91 in 10.0 mi ESE 13.8 mph - N/A   Scattered Clouds
12:55 PM 81.5 °F 82.7 °F 62.6 °F 53% 29.90 in 10.0 mi ESE 12.7 mph 17.3 mph N/A   Clear
1:15 PM 82.2 °F 83.3 °F 62.8 °F 52% 29.91 in 10.0 mi ESE 9.2 mph - N/A   Clear
1:35 PM 82.6 °F 83.6 °F 63.0 °F 51% 29.90 in 10.0 mi ESE 10.4 mph - N/A   Scattered Clouds
1:55 PM 83.1 °F 84.6 °F 64.4 °F 53% 29.89 in 10.0 mi SSE 10.4 mph - N/A   Mostly Cloudy
2:15 PM 83.8 °F 85.3 °F 64.8 °F 52% 29.89 in 10.0 mi SSE 11.5 mph - N/A   Mostly Cloudy
2:35 PM 83.3 °F 84.6 °F 64.0 °F 52% 29.88 in 10.0 mi SE 9.2 mph - N/A   Scattered Clouds
2:55 PM 83.7 °F 85.1 °F 64.2 °F 52% 29.88 in 10.0 mi SE 4.6 mph - N/A   Mostly Cloudy
3:15 PM 84.2 °F 85.6 °F 64.2 °F 51% 29.88 in 10.0 mi SSE 10.4 mph - N/A   Mostly Cloudy
3:35 PM 84.6 °F 86.1 °F 64.4 °F 51% 29.88 in 10.0 mi SE 9.2 mph - N/A   Mostly Cloudy
3:55 PM 84.7 °F 86.1 °F 64.4 °F 50% 29.88 in 10.0 mi South 10.4 mph 17.3 mph N/A   Mostly Cloudy
4:15 PM 85.3 °F 87.1 °F 65.5 °F 51% 29.88 in 10.0 mi SE 10.4 mph - N/A   Scattered Clouds
4:35 PM 84.2 °F 86.1 °F 65.5 °F 53% 29.87 in 10.0 mi SSE 6.9 mph - N/A   Scattered Clouds
4:55 PM 83.8 °F 85.6 °F 65.3 °F 53% 29.87 in 10.0 mi SSE 11.5 mph 18.4 mph N/A   Mostly Cloudy
5:15 PM 83.8 °F 85.6 °F 65.1 °F 53% 29.86 in 10.0 mi SE 9.2 mph - N/A   Scattered Clouds
5:35 PM 84.4 °F 86.8 °F 66.4 °F 55% 29.86 in 10.0 mi SSE 5.8 mph - N/A   Clear
5:55 PM 84.0 °F 86.0 °F 65.5 °F 54% 29.85 in 10.0 mi SSE 10.4 mph 16.1 mph N/A   Clear
6:15 PM 82.0 °F 83.8 °F 64.9 °F 56% 29.85 in 10.0 mi SSE 6.9 mph - N/A   Clear
6:35 PM 81.1 °F 83.4 °F 66.4 °F 61% 29.84 in 10.0 mi SE 6.9 mph - N/A   Clear
6:55 PM 80.4 °F 82.4 °F 65.8 °F 61% 29.84 in 10.0 mi ESE 8.1 mph - N/A   Clear
7:15 PM 79.3 °F - 66.0 °F 64% 29.84 in 10.0 mi SE 4.6 mph - N/A   Clear
7:35 PM 78.6 °F - 66.7 °F 67% 29.84 in 10.0 mi SE 5.8 mph - N/A   Clear
7:55 PM 78.4 °F - 66.0 °F 66% 29.84 in 10.0 mi SE 6.9 mph - N/A   Clear
8:15 PM 77.5 °F - 65.8 °F 67% 29.83 in 10.0 mi ESE 6.9 mph - N/A   Clear
8:35 PM 76.6 °F - 65.7 °F 69% 29.83 in 10.0 mi ESE 8.1 mph - N/A   Clear
8:55 PM 76.3 °F - 65.7 °F 70% 29.81 in 10.0 mi ESE 8.1 mph - N/A   Clear
9:15 PM 75.4 °F - 65.7 °F 72% 29.81 in 10.0 mi ESE 6.9 mph - N/A   Clear
9:35 PM 75.0 °F - 65.5 °F 72% 29.81 in 10.0 mi ESE 8.1 mph - N/A   Clear
9:55 PM 74.7 °F - 65.3 °F 73% 29.83 in 10.0 mi ESE 6.9 mph - N/A   Clear
10:15 PM 74.5 °F - 65.5 °F 73% 29.83 in 10.0 mi ESE 6.9 mph - N/A   Clear
10:35 PM 74.3 °F - 65.7 °F 74% 29.83 in 10.0 mi SE 9.2 mph - N/A   Clear
10:55 PM 74.7 °F - 66.2 °F 75% 29.81 in 10.0 mi SE 11.5 mph - N/A   Clear
11:15 PM 74.5 °F - 66.6 °F 76% 29.83 in 10.0 mi SSE 9.2 mph - N/A   Scattered Clouds
11:35 PM 74.7 °F - 66.9 °F 77% 29.83 in 10.0 mi SE 9.2 mph - N/A   Overcast
11:55 PM 74.8 °F - 67.3 °F 77% 29.84 in 10.0 mi SE 6.9 mph - N/A   Overcast